Flag for U.S.A. Weather past 2 weeks in Decatur, Illinois, U.S.A.

Now
63 °F

Passing clouds.


Feels Like: 63 °F
Forecast: 42 / 64 °F
Wind: 20 mph from West

Location: Decatur Airport

Current Time: Apr 21, 2015 at 4:38:35 PM

Latest Report: Apr 21, 2015 at 3:54 PM


Visibility: 10 mi

Pressure: 29.73 "Hg

Humidity: 21%

Dew point: 22 °F

Location of DecaturLocation

Historic Weather in Decatur — Graph

°F

Decatur temperature yesterday

Maximum temperature yesterday: 59 °F (at 12:54 AM)
Minimum temperature yesterday: 44 °F (at 9:54 PM)
Average temperature yesterday: 51 °F

Past Weeks' High & Low Weather Summary

 TemperatureHumidityPressure
High78 °F (Apr 9, 2:54 PM)100% (Apr 7, 9:54 AM)30.32 "Hg (Apr 7, 9:54 AM)
Low35 °F (Apr 11, 4:54 AM)20% (Apr 21, 1:54 PM)29.37 "Hg (Apr 19, 8:54 PM)
Average59 °F66%29.95 "Hg
* Reported Apr 6 2:54 PM — Apr 21 2:54 PM, Decatur, Weather by CustomWeather, © 2015

Note: Actual official high and low records may vary slightly from our data, if they occured in-between our weather recording intervals... More about our weather records

Advertising

Decatur weather history for previous 24 hours

 ConditionsComfort  
Time TempWeatherWind HumidityBarometerVisibility
2:54 PM
Tue, Apr 21
63 °FPassing clouds.20 mph22%29.74 "Hg10 mi
1:54 PM62 °FSunny.18 mph20%29.76 "Hg10 mi
12:54 PM61 °FSunny.16 mph23%29.77 "Hg10 mi
11:54 AM59 °FSunny.15 mph26%29.78 "Hg10 mi
10:54 AM57 °FSunny.16 mph31%29.79 "Hg10 mi
9:54 AM53 °FSunny.17 mph38%29.79 "Hg10 mi
8:54 AM50 °FSunny.13 mph50%29.78 "Hg10 mi
7:54 AM46 °FSunny.15 mph56%29.78 "Hg10 mi
6:54 AM42 °FPassing clouds.12 mph65%29.77 "Hg10 mi
5:54 AM40 °FClear.10 mph73%29.76 "Hg10 mi
4:54 AM42 °FClear.10 mph68%29.75 "Hg10 mi
3:54 AM42 °FClear.12 mph68%29.75 "Hg10 mi
2:54 AM44 °FClear.14 mph63%29.74 "Hg10 mi
1:54 AM46 °FClear.14 mph58%29.74 "Hg10 mi
12:54 AM45 °FClear.12 mph63%29.75 "Hg10 mi
11:54 PM
Mon, Apr 20
45 °FClear.12 mph65%29.75 "Hg10 mi
10:54 PM44 °FClear.9 mph71%29.76 "Hg10 mi
9:54 PM44 °FPassing clouds.7 mph71%29.77 "Hg10 mi
8:54 PM49 °FOvercast.10 mph57%29.75 "Hg10 mi
7:54 PM49 °FPartly sunny.8 mph57%29.75 "Hg10 mi
6:54 PM50 °FOvercast.12 mph52%29.73 "Hg10 mi
5:54 PM50 °FCloudy.15 mph59%29.72 "Hg10 mi
4:54 PM51 °FOvercast.17 mph52%29.70 "Hg10 mi
Weather by CustomWeather, © 2015

See weather overviewHow to use our weather pages